Weather History for Anvik, AK

Change the Weather History Date:

Thursday, April 17, 2014

  Actual Average Record
Temperature  
Mean Temperature 38 °F -  
Max Temperature 44 °F 34 °F 46 °F (1998)
Min Temperature 33 °F 23 °F -2 °F (2005)
Degree Days  
Heating Degree Days 26    
Moisture  
Dew Point 28 °F    
Average Humidity 65    
Maximum Humidity 81    
Minimum Humidity 49    
Precipitation  
Precipitation 0.00 in - - ()
Sea Level Pressure  
Sea Level Pressure 29.47 in    
Wind  
Wind Speed 7 mph (NE)    
Max Wind Speed 12 mph    
Max Gust Speed -    
Averages and records for this station are not official NWS values.
T = Trace of Precipitation, MM = Missing Value Source: NWS Daily Summary

Daily Weather History Graph

Daily Weather History Graph

Search for Another Location

Airport:

Trip Planner

Search our weather history database for the weather conditions in past years. The results will help you decide how hot, cold, wet, or windy it might be!

Date:

Astronomy

Apr. 17, 2014 Rise Set
Actual Time 7:07 AM AKDT 10:14 PM AKDT
Civil Twilight 6:14 AM AKDT 11:08 PM AKDT
Nautical Twilight 4:59 AM AKDT 12:24 AM AKDT
Astronomical Twilight 3:12 AM AKDT 2:07 AM AKDT
Moon 12:42 AM AKDT (4/17) 8:11 AM AKDT (4/17)
Length of Visible Light 16h 53m
Length of Day
15h 07m
Waning Gibbous, 93% of the Moon is Illuminated
Apr 17
Waning Gibbous
Apr 21
Last Quarter
Apr 28
New
May 6
First Quarter
May 14
Full

Hourly Weather History & Observations

Time (AKDT) Temp. Windchill Dew Point Humidity Pressure Visibility Wind Dir Wind Speed Gust Speed Precip Events Conditions
12:16 AM 39.2 °F 35.0 °F 28.4 °F 65% 29.60 in - NE 5.8 mph - N/A   Mostly Cloudy
12:36 AM 39.2 °F 35.0 °F 30.2 °F 70% 29.60 in - NE 5.8 mph - N/A   Overcast
12:56 AM 39.2 °F 35.0 °F 28.4 °F 65% 29.60 in - NE 5.8 mph - N/A   Overcast
1:16 AM 37.4 °F 32.8 °F 28.4 °F 70% 29.60 in - NE 5.8 mph - N/A   Overcast
1:36 AM 37.4 °F 33.8 °F 28.4 °F 70% 29.59 in - NNE 4.6 mph - N/A   Overcast
1:56 AM 37.4 °F 34.9 °F 28.4 °F 70% 29.59 in - North 3.5 mph - N/A   Overcast
2:16 AM 37.4 °F 33.8 °F 28.4 °F 70% 29.59 in - NNE 4.6 mph - N/A   Overcast
2:36 AM 37.4 °F 32.1 °F 28.4 °F 70% 29.58 in - NNE 6.9 mph - N/A   Overcast
2:56 AM 37.4 °F 33.8 °F 28.4 °F 70% 29.58 in - NNE 4.6 mph - N/A   Overcast
3:16 AM 35.6 °F 31.7 °F 28.4 °F 75% 29.58 in - North 4.6 mph - N/A   Overcast
3:36 AM 35.6 °F 29.9 °F 28.4 °F 75% 29.57 in - NNE 6.9 mph - N/A   Scattered Clouds
3:56 AM 35.6 °F 28.6 °F 26.6 °F 70% 29.57 in - NNE 9.2 mph - N/A   Mostly Cloudy
4:16 AM 35.6 °F 28.0 °F 26.6 °F 70% 29.56 in - NNE 10.4 mph - N/A   Mostly Cloudy
4:36 AM 35.6 °F 28.0 °F 26.6 °F 70% 29.56 in - NNE 10.4 mph - N/A   Overcast
4:56 AM 35.6 °F 28.0 °F 26.6 °F 70% 29.55 in - NNE 10.4 mph - N/A   Overcast
5:16 AM 35.6 °F 28.6 °F 26.6 °F 70% 29.55 in - NNE 9.2 mph - N/A   Overcast
5:36 AM 35.6 °F 28.6 °F 26.6 °F 70% 29.54 in - NE 9.2 mph - N/A   Overcast
5:56 AM 35.6 °F 29.2 °F 28.4 °F 75% 29.54 in - NNE 8.1 mph - N/A   Overcast
6:16 AM 35.6 °F 29.2 °F 28.4 °F 75% 29.53 in - NE 8.1 mph - N/A   Overcast
6:36 AM 35.6 °F 27.5 °F 28.4 °F 75% 29.53 in - NNE 11.5 mph - N/A   Overcast
6:56 AM 35.6 °F 28.0 °F 28.4 °F 75% 29.52 in - NE 10.4 mph - N/A   Overcast
7:16 AM 35.6 °F 28.6 °F 28.4 °F 75% 29.52 in - NE 9.2 mph - N/A   Overcast
7:36 AM 35.6 °F 28.6 °F 28.4 °F 75% 29.52 in - NNE 9.2 mph - N/A   Overcast
8:16 AM 35.6 °F 28.6 °F 28.4 °F 75% 29.51 in - NNE 9.2 mph - N/A   Overcast
8:36 AM 35.6 °F 28.0 °F 28.4 °F 75% 29.50 in - NNE 10.4 mph - N/A   Overcast
8:56 AM 35.6 °F 29.2 °F 28.4 °F 75% 29.50 in - NNE 8.1 mph - N/A   Overcast
9:16 AM 35.6 °F 28.6 °F 28.4 °F 75% 29.50 in - NNE 9.2 mph - N/A   Overcast
9:36 AM 33.8 °F 26.4 °F 28.4 °F 81% 29.50 in - NNE 9.2 mph - N/A   Mostly Cloudy
9:56 AM 33.8 °F 27.0 °F 28.4 °F 81% 29.49 in - NNE 8.1 mph - N/A   Mostly Cloudy
10:16 AM 35.6 °F 29.2 °F 28.4 °F 75% 29.49 in - NNE 8.1 mph - N/A   Scattered Clouds
10:36 AM 37.4 °F 32.1 °F 30.2 °F 75% 29.49 in - NNE 6.9 mph - N/A   Partly Cloudy
10:56 AM 37.4 °F 32.1 °F 30.2 °F 75% 29.48 in - NE 6.9 mph - N/A   Partly Cloudy
11:16 AM 37.4 °F 31.4 °F 30.2 °F 75% 29.48 in - NE 8.1 mph - N/A   Partly Cloudy
11:36 AM 39.2 °F 34.2 °F 30.2 °F 70% 29.47 in - NE 6.9 mph - N/A   Partly Cloudy
11:56 AM 39.2 °F 34.2 °F 30.2 °F 70% 29.47 in - NE 6.9 mph - N/A   Mostly Cloudy
12:16 PM 39.2 °F 35.0 °F 30.2 °F 70% 29.46 in - NNE 5.8 mph - N/A   Partly Cloudy
12:36 PM 39.2 °F 33.6 °F 30.2 °F 70% 29.46 in - ENE 8.1 mph - N/A   Clear
12:56 PM 41.0 °F 35.2 °F 30.2 °F 65% 29.46 in - ENE 9.2 mph - N/A   Clear
1:16 PM 42.8 °F 36.6 °F 30.2 °F 61% 29.45 in - NE 11.5 mph - N/A   Clear
1:36 PM 42.8 °F 37.5 °F 30.2 °F 61% 29.45 in - ENE 9.2 mph - N/A   Clear
1:56 PM 42.8 °F 37.5 °F 30.2 °F 61% 29.44 in - East 9.2 mph - N/A   Clear
2:16 PM 42.8 °F 39.3 °F 30.2 °F 61% 29.43 in - ENE 5.8 mph - N/A   Clear
2:36 PM 44.6 °F 39.7 °F 30.2 °F 57% 29.43 in - ENE 9.2 mph - N/A   Clear
2:56 PM 44.6 °F 39.7 °F 30.2 °F 57% 29.43 in - East 9.2 mph - N/A   Clear
3:16 PM 44.6 °F 40.7 °F 30.2 °F 57% 29.42 in - East 6.9 mph - N/A   Clear
3:36 PM 44.6 °F 40.2 °F 30.2 °F 57% 29.41 in - NNE 8.1 mph - N/A   Partly Cloudy
3:56 PM 44.6 °F 41.4 °F 30.2 °F 57% 29.41 in - East 5.8 mph - N/A   Scattered Clouds
4:16 PM 44.6 °F 40.2 °F 30.2 °F 57% 29.40 in - ESE 8.1 mph - N/A   Mostly Cloudy
4:56 PM 44.6 °F 40.2 °F 28.4 °F 53% 29.39 in - NE 8.1 mph - N/A   Partly Cloudy
5:16 PM 44.6 °F 42.2 °F 28.4 °F 53% 29.39 in - North 4.6 mph - N/A   Partly Cloudy
5:56 PM 44.6 °F 40.2 °F 28.4 °F 53% 29.38 in - NE 8.1 mph - N/A   Scattered Clouds
6:16 PM 44.6 °F 39.7 °F 28.4 °F 53% 29.37 in - NE 9.2 mph - N/A   Clear
6:36 PM 44.6 °F 40.2 °F 26.6 °F 49% 29.37 in - NNE 8.1 mph - N/A   Clear
7:16 PM 44.6 °F 40.7 °F 26.6 °F 49% 29.36 in - NE 6.9 mph - N/A   Clear
7:36 PM 44.6 °F 41.4 °F 26.6 °F 49% 29.36 in - NNE 5.8 mph - N/A   Clear
7:56 PM 44.6 °F 40.7 °F 26.6 °F 49% 29.36 in - NNE 6.9 mph - N/A   Scattered Clouds
8:16 PM 44.6 °F 40.2 °F 26.6 °F 49% 29.36 in - NE 8.1 mph - N/A   Partly Cloudy
8:36 PM 44.6 °F 40.2 °F 26.6 °F 49% 29.35 in - NE 8.1 mph - N/A   Clear
8:56 PM 42.8 °F 38.6 °F 28.4 °F 57% 29.35 in - NNE 6.9 mph - N/A   Clear
9:16 PM 42.8 °F 38.6 °F 28.4 °F 57% 29.35 in - NNE 6.9 mph - N/A   Clear
9:36 PM 42.8 °F 39.3 °F 26.6 °F 53% 29.35 in - NNE 5.8 mph - N/A   Clear
9:56 PM 41.0 °F 37.1 °F 26.6 °F 57% 29.35 in - NNE 5.8 mph - N/A   Clear
10:16 PM 41.0 °F 39.0 °F 26.6 °F 57% 29.35 in - NNE 3.5 mph - N/A   Partly Cloudy
10:36 PM 39.2 °F 35.9 °F 28.4 °F 65% 29.35 in - NNE 4.6 mph - N/A   Partly Cloudy
10:56 PM 39.2 °F 35.9 °F 26.6 °F 61% 29.35 in - NNE 4.6 mph - N/A   Clear
11:16 PM 39.2 °F 35.9 °F 26.6 °F 61% 29.35 in - North 4.6 mph - N/A   Clear
11:36 PM 37.4 °F 32.1 °F 26.6 °F 65% 29.35 in - NNE 6.9 mph - N/A   Clear
11:56 PM 37.4 °F 33.8 °F 26.6 °F 65% 29.35 in - NNE 4.6 mph - N/A   Clear